Flag for U.S.A. Weather past 2 weeks in Roanoke, Virginia, U.S.A.

Now
72 °F

Partly cloudy.


Feels Like: 72 °F
Forecast: 67 / 90 °F
Wind: 5 mph from Southeast

Location: Roanoke Regional Airport

Current Time: Jul 26, 2014 at 1:47:22 AM

Latest Report: Jul 26, 2014 at 12:54 AM


Visibility: 10 mi

Pressure: 30.03 "Hg

Humidity: 81%

Dew point: 66 °F

Location of RoanokeLocation

Historic Weather in Roanoke — Graph

°F

Roanoke temperature yesterday

Maximum temperature yesterday: 80 °F (at 3:54 PM)
Minimum temperature yesterday: 63 °F (at 5:54 AM)
Average temperature yesterday: 72 °F

Past Weeks' High & Low Weather Summary

 TemperatureHumidityPressure
High93 °F (Jul 14, 2:54 PM)96% (Jul 22, 6:54 AM)30.24 "Hg (Jul 22, 6:54 AM)
Low54 °F (Jul 17, 5:54 AM)32% (Jul 16, 5:54 PM)29.78 "Hg (Jul 15, 5:54 PM)
Average74 °F70%30.06 "Hg
* Reported Jul 11 12:54 AM — Jul 26 12:54 AM, Roanoke, Weather by CustomWeather, © 2014

Note: Actual official high and low records may vary slightly from our data, if they occured in-between our weather recording intervals... More about our weather records

Advertising

Roanoke weather history for previous 24 hours

 ConditionsComfort  
Time TempWeatherWind HumidityBarometerVisibility
12:54 AM
Jul 26
72 °FPartly cloudy.5 mph81%30.03 "Hg10 mi
11:54 PM
Jul 25
73 °FPartly cloudy.6 mph76%30.03 "Hg10 mi
10:54 PM72 °FPartly cloudy.3 mph78%30.03 "Hg10 mi
9:54 PM73 °FPartly cloudy.6 mph74%30.03 "Hg10 mi
8:54 PM75 °FBroken clouds.7 mph71%30.03 "Hg10 mi
7:54 PM77 °FBroken clouds.12 mph64%30.03 "Hg10 mi
6:54 PM80 °FBroken clouds.9 mph58%30.01 "Hg10 mi
5:54 PM80 °FScattered clouds.9 mph58%30.01 "Hg10 mi
4:54 PM80 °FScattered clouds.8 mph54%30.00 "Hg10 mi
3:54 PM80 °FBroken clouds.8 mph54%30.01 "Hg10 mi
2:54 PM79 °FPartly sunny.9 mph54%30.03 "Hg10 mi
1:54 PM77 °FScattered clouds.9 mph58%30.05 "Hg10 mi
12:54 PM77 °FBroken clouds.9 mph56%30.06 "Hg10 mi
11:54 AM75 °FScattered clouds.5 mph55%30.09 "Hg10 mi
10:54 AM74 °FScattered clouds.5 mph62%30.09 "Hg10 mi
9:54 AM71 °FBroken clouds.No wind73%30.09 "Hg10 mi
8:54 AM68 °FScattered clouds.No wind82%30.10 "Hg10 mi
7:54 AM65 °FScattered clouds.No wind91%30.09 "Hg10 mi
6:54 AM63 °FPassing clouds.3 mph93%30.07 "Hg7 mi
5:54 AM63 °FMostly cloudy.No wind90%30.05 "Hg10 mi
4:54 AM64 °FLight rain. Mostly cloudy.7 mph90%30.03 "Hg10 mi
3:54 AM64 °FMostly cloudy.10 mph94%30.03 "Hg10 mi
3:02 AM66 °FLow clouds.9 mph94%30.06 "Hg9 mi
2:54 AM66 °FOvercast.6 mph96%30.03 "Hg9 mi
1:54 AM67 °FHeavy rain. Fog.3 mph93%30.02 "Hg2 mi
Weather by CustomWeather, © 2014

See weather overviewHow to use our weather pages